shenyang , China , ASIA

  • Monday
    July 24

      Sunny

      63 °F

      No wind

       

  • Tuesday
    July 25

    Sunny  Sunny

    84 °F  64 °F

    No wind  No wind

        

  • Wednesday
    July 26

    Cloudy  Shower

    86 °F  68 °F

    No wind  North

        

  • Thursday
    July 27

    Light rain  Cloudy

    79 °F  66 °F

    Southeast  North

        

  • Friday
    July 28

    Cloudy  Cloudy

    84 °F  68 °F

    North  North

        

  • Saturday
    July 29

    Sunny  Sunny

    86 °F  70 °F

    North  North

        

  • Sunday
    July 30

    Cloudy  Cloudy

    86 °F  70 °F

    North  North

        

Date   Weather Temperature Humidity Total_rain Visibility Wind
23:00 Sunny 71°F 68.6% 0mm 999.9km Northeast  2.9m/s
02:00 Sunny 66°F 70.1% 0mm 999.9km Northeast  2.7m/s
05:00 Sunny 63°F 76.4% 0mm 999.9km Northeast  2.5m/s
08:00 Sunny 75°F 62.1% 0mm 999.9km Northeast  3.5m/s
11:00 Sunny 82°F 52.9% 0mm 999.9km Northeast  4.9m/s
14:00 Sunny 84°F 52.7% 0mm 999.9km Northeast  4.9m/s
17:00 Sunny 81°F 56.2% 0mm 999.9km Northeast  3.9m/s
20:00 Sunny 74°F 48% 0mm 999.9km Northeast  2.6m/s
23:00 Sunny 70°F 64.7% 0mm 999.9km Southeast  2.4m/s
02:00 Sunny 67°F 68.1% 0mm 999.9km Northeast  1.4m/s
05:00 Sunny 65°F 70.1% 0mm 999.9km Northeast  2.1m/s
08:00 Sunny 76°F 62.2% 0mm 999.9km Northeast  2.2m/s
11:00 Cloudy 82°F 58.5% 0mm 999.9km Southeast  1.8m/s
14:00 Cloudy 86°F 57.5% 0mm 999.9km Southwest  2.3m/s
17:00 Cloudy 79°F 62.9% 0mm 999.9km Northwest  1.9m/s
20:00 Cloudy 74°F 54.1% 0mm 999.9km Southwest  1.0m/s
23:00 Shower 68°F 88.4% 3.2mm 999.9km Southeast  1.1m/s
02:00 Shower 68°F 94.7% 9mm 999.9km Southeast  1.1m/s
05:00 Shower 69°F 96.2% 1.4mm 999.9km Southeast  2.0m/s
08:00 Shower 70°F 97.4% 3mm 999.9km Southeast  0.9m/s
11:00 Light rain 74°F 95% 0.8mm 999.9km Southwest  1.6m/s
14:00 Light rain 78°F 85% 0.4mm 999.9km Southwest  2.4m/s
17:00 Overcast 78°F 84.4% 0mm 999.9km Southeast  1.7m/s
20:00 Cloudy 75°F 78.6% 0mm 999.9km Southeast  2.0m/s
23:00 Cloudy 69°F 94.5% 0mm 999.9km Southwest  1.7m/s
02:00 Cloudy 68°F 95.6% 0mm 999.9km Southeast  1.0m/s
05:00 Cloudy 67°F 96.3% 0mm 999.9km Southeast  0.2m/s
08:00 Cloudy 75°F 85.7% 0mm 999.9km Northwest  1.6m/s
11:00 Cloudy 80°F 75% 0mm 999.9km Northwest  3.0m/s
14:00 Cloudy 84°F 68.4% 0mm 999.9km Northwest  3.2m/s
17:00 Cloudy 81°F 68.9% 0mm 999.9km Northwest  3.4m/s
20:00 Cloudy 75°F 61.3% 0mm 999.9km Northeast  2.2m/s
23:00 Cloudy 72°F 74.6% 0mm 999.9km Northeast  1.6m/s
02:00 Cloudy 70°F 79.9% 0mm 999.9km Southeast  1.2m/s
05:00 Cloudy 68°F 83.5% 0mm 999.9km Northeast  1.1m/s
08:00 Cloudy 78°F 71.3% 0mm 999.9km Northeast  1.8m/s
11:00 Sunny 84°F 57.1% 0mm 999.9km Northeast  2.7m/s
14:00 Sunny 85°F 56.8% 0mm 999.9km Northeast  2.2m/s
17:00 Sunny 86°F 56.5% 0mm 999.9km Northeast  2.0m/s
20:00 Sunny 78°F 50.3% 0mm 999.9km Northeast  1.8m/s
23:00 Sunny 74°F 79.5% 0mm 999.9km Southeast  1.6m/s
02:00 Sunny 74°F 79.1% 0mm 999.9km Southwest  2.0m/s
05:00 Sunny 70°F 77.2% 0mm 999.9km Southeast  2.0m/s
08:00 Sunny 80°F 75.3% 0mm 999.9km Southwest  2.7m/s
11:00 Cloudy 86°F 70.2% 0mm 999.9km Southwest  3.5m/s
14:00 Cloudy 83°F 71.1% 0mm 999.9km Southwest  4.0m/s
17:00 Cloudy 81°F 69.3% 0mm 999.9km Southwest  4.1m/s
20:00 Cloudy 79°F 67.6% 0mm 999.9km Southwest  2.8m/s
23:00 Cloudy 72°F 93% 0mm 999.9km Southwest  2.8m/s
02:00 Cloudy 70°F 94.5% 0mm 999.9km Southwest  2.2m/s
05:00 Cloudy 71°F 93.1% 0mm 999.9km Southeast  2.9m/s